CELTEE 1

Last updated on Tue Oct 14 2025 00:03:48 GMT+0000 (Coordinated Universal Time)

1 41850U 16067C 25286.49802122 .00008708 00000+0 45528-3 0 9998 2 41850 98.0962 131.3422 0001920 52.5504 307.5902 15.16138877488455
UTC large
Height (km)
Speed (km/s)
/
Latitude / Longitude
Inclination (degrees)
Orbital Period (minutes)
Azimuth
Elevation
Range (km)
Doppler Factor

Next 0 passes for location: London (51.5072 / 0.1276)

Sorry there are no passes over London.